Location: İstanbul
(41.0082°N, 28.9784°E)
Time: 20:50:08
(UTC+03:00)

NOAA 15 - Pass Details

Date: 26 April 2024
Orbit: 795 x 811 km, 98.6° (Epoch: 22 May)

Event Time Altitude Azimuth Distance (km) Brightness Sun altitude
Rises 21:12:46 0° 210° (SSW) 3,305 7.8 -13.8°
Reaches altitude 10° 21:16:02 10° 232° (SW) 2,377 7.3 -14.4°
Maximum altitude 21:19:11 16° 269° (W) 1,991 7.4 -14.8°
Drops below altitude 10° 21:22:21 10° 306° (NW) 2,381 8.5 -15.3°
Sets 21:25:39 0° 328° (NNW) 3,314 9.1 -15.9°
